Regional Weather Roundup
Issued by NWS Sioux Falls, SD

Home | Current Version | Previous Version | Text Only | Print | Product List | Glossary On
Versions: 1 2 3 4 5 6 7 8 9 10 11 12 13 14 15 16 17 18 19 20 21 22 23 24 25 26 27 28 29 30 31 32 33 34 35 36 37 38 39 40 41 42 43 44 45 46 47 48 49 50
000
ASUS43 KFSD 100610
RWRFSD

WEATHER ROUNDUP FOR SE SOUTH DAKOTA/SW MINNESOTA/NW IOWA
NATIONAL WEATHER SERVICE SIOUX FALLS SD
100 AM CDT THU JUL 10 2014

NOTE: "FAIR" INDICATES FEW OR NO CLOUDS BELOW 12,000 FEET WITH NO
SIGNIFICANT WEATHER AND OR OBSTRUCTIONS TO VISIBILITY.


SDZ038>040-050-052>070-100700-
SOUTHEAST SOUTH DAKOTA

CITY           SKY/WX    TMP DP  RH WIND       PRES   REMARKS
CHAMBERLAIN    CLEAR     58  54  88 SE3       29.99S
6HR MIN TEMP:  58; 6HR MAX TEMP:  78;

HURON          CLEAR     65  58  78 SE7       29.98S
6HR MIN TEMP:  64; 6HR MAX TEMP:  80;

MADISON        FAIR      59  59 100 SE5       30.03R
MITCHELL       CLEAR     65  60  84 S5        29.99S
6HR MIN TEMP:  65; 6HR MAX TEMP:  81;

SIOUX FALLS    CLEAR     66  58  75 E5        30.01S
6HR MIN TEMP:  64; 6HR MAX TEMP:  81;

WINNER         FAIR      62  58  86 SE7       29.98F
YANKTON        CLEAR     63  59  88 SE5       30.02S
$$

MNZ071-072-080-081-089-090-097-098-100700-
SOUTHWEST MINNESOTA

CITY           SKY/WX    TMP DP  RH WIND       PRES   REMARKS
FAIRMONT       PTCLDY    63  54  72 CALM      30.03S
JACKSON        PTCLDY    63  54  72 S3        30.04S
LUVERNE        CLEAR     64  55  72 CALM      30.03R
MARSHALL       CLEAR     63  54  72 MISG      30.02R
6HR MIN TEMP:  61; 6HR MAX TEMP:  77;

MONTEVIDEO     CLEAR     61  54  77 S6        30.02S
PIPESTONE      CLEAR     63  54  72 SE5       30.03S
REDWOOD FALLS  CLEAR     63  53  70 SE3       30.02R
TRACY          CLEAR     64  53  66 CALM      30.03R
WINDOM         CLEAR     63  55  77 CALM      30.04S
WORTHINGTON    PTCLDY    64  55  72 SE5       30.05S
$$

IAZ001>003-012>014-020>022-031-032-NEZ013-014-SDZ071-100700-
NORTHWEST IOWA

CITY           SKY/WX    TMP DP  RH WIND       PRES   REMARKS
CHEROKEE       CLEAR     64  62  96 CALM      30.03R
DENISON        MOCLDY    64  63  94 CALM      30.03R
ESTHERVILLE    PTCLDY    62  59  90 S3        30.04R
LE MARS        CLEAR     61  59  94 CALM      30.03S
ORANGE CITY    CLEAR     66  61  82 SW3       30.03S
SHELDON        CLEAR     63  61  94 SE3       30.02S
SIOUX CITY     CLEAR     63  61  93 CALM      30.02R
6HR MIN TEMP:  63; 6HR MAX TEMP:  78; 6HR PCP: TRACE;

SPENCER        CLEAR     63  60  90 E3        30.03S
6HR MIN TEMP:  62; 6HR MAX TEMP:  79;

STORM LAKE     CLEAR     64  63  94 S6        30.05R
$$

ABBREVIATIONS USED IN REMARKS
   TC - TEMPERATURE IN CELSIUS
  WCI - WIND CHILL INDEX
   HX - HEAT INDEX
  VSB - VISIBILITY




USA.gov is the U.S. government's official web portal to all federal, state and local government web resources and services.